Year,Month,Day,Hour,Minute,Value (Times are PST for insolation in W/m^2)
2020,03,30,00,00,0.00
2020,03,30,00,01,0.00
2020,03,30,00,02,0.00
2020,03,30,00,03,0.00
2020,03,30,00,04,0.00
2020,03,30,00,05,0.00
2020,03,30,00,06,0.00
2020,03,30,00,07,0.00
2020,03,30,00,08,0.00
2020,03,30,00,09,0.00
2020,03,30,00,10,0.00
2020,03,30,00,11,0.00
2020,03,30,00,12,0.00
2020,03,30,00,13,0.00
2020,03,30,00,14,0.00
2020,03,30,00,15,0.00
2020,03,30,00,16,0.00
2020,03,30,00,17,0.00
2020,03,30,00,18,0.00
2020,03,30,00,19,0.00
2020,03,30,00,20,0.00
2020,03,30,00,21,0.00
2020,03,30,00,22,0.00
2020,03,30,00,23,0.00
2020,03,30,00,24,0.00
2020,03,30,00,25,0.00
2020,03,30,00,26,0.00
2020,03,30,00,27,0.00
2020,03,30,00,28,0.00
2020,03,30,00,29,0.00
2020,03,30,00,30,0.00
2020,03,30,00,31,0.00
2020,03,30,00,32,0.00
2020,03,30,00,33,0.00
2020,03,30,00,34,0.00
2020,03,30,00,35,0.00
2020,03,30,00,36,0.00
2020,03,30,00,37,0.00
2020,03,30,00,38,0.00
2020,03,30,00,39,0.00
2020,03,30,00,40,0.00
2020,03,30,00,41,0.00
2020,03,30,00,42,0.00
2020,03,30,00,43,0.00
2020,03,30,00,44,0.00
2020,03,30,00,45,0.00
2020,03,30,00,46,0.00
2020,03,30,00,47,0.00
2020,03,30,00,48,0.00
2020,03,30,00,49,0.00
2020,03,30,00,50,0.00
2020,03,30,00,51,0.00
2020,03,30,00,52,0.00
2020,03,30,00,53,0.00
2020,03,30,00,54,0.00
2020,03,30,00,55,0.00
2020,03,30,00,56,0.00
2020,03,30,00,57,0.00
2020,03,30,00,58,0.00
2020,03,30,00,59,0.00
2020,03,30,01,00,0.00
2020,03,30,01,01,0.00
2020,03,30,01,02,0.00
2020,03,30,01,03,0.00
2020,03,30,01,04,0.00
2020,03,30,01,05,0.00
2020,03,30,01,06,0.00
2020,03,30,01,07,0.00
2020,03,30,01,08,0.00
2020,03,30,01,09,0.00
2020,03,30,01,10,0.00
2020,03,30,01,11,0.00
2020,03,30,01,12,0.00
2020,03,30,01,13,0.00
2020,03,30,01,14,0.00
2020,03,30,01,15,0.00
2020,03,30,01,16,0.00
2020,03,30,01,17,0.00
2020,03,30,01,18,0.00
2020,03,30,01,19,0.00
2020,03,30,01,20,0.00
2020,03,30,01,21,0.00
2020,03,30,01,22,0.00
2020,03,30,01,23,0.00
2020,03,30,01,24,0.00
2020,03,30,01,25,0.00
2020,03,30,01,26,0.00
2020,03,30,01,27,0.00
2020,03,30,01,28,0.00
2020,03,30,01,29,0.00
2020,03,30,01,30,0.00
2020,03,30,01,31,0.00
2020,03,30,01,32,0.00
2020,03,30,01,33,0.00
2020,03,30,01,34,0.00
2020,03,30,01,35,0.00
2020,03,30,01,36,0.00
2020,03,30,01,37,0.00
2020,03,30,01,38,0.00
2020,03,30,01,39,0.00
2020,03,30,01,40,0.00
2020,03,30,01,41,0.00
2020,03,30,01,42,0.00
2020,03,30,01,43,0.00
2020,03,30,01,44,0.00
2020,03,30,01,45,0.00
2020,03,30,01,46,0.00
2020,03,30,01,47,0.00
2020,03,30,01,48,0.00
2020,03,30,01,49,0.00
2020,03,30,01,50,0.00
2020,03,30,01,51,0.00
2020,03,30,01,52,0.00
2020,03,30,01,53,0.00
2020,03,30,01,54,0.00
2020,03,30,01,55,0.00
2020,03,30,01,56,0.00
2020,03,30,01,57,0.00
2020,03,30,01,58,0.00
2020,03,30,01,59,0.00
2020,03,30,02,00,0.00
2020,03,30,02,01,0.00
2020,03,30,02,02,0.00
2020,03,30,02,03,0.00
2020,03,30,02,04,0.00
2020,03,30,02,05,0.00
2020,03,30,02,06,0.00
2020,03,30,02,07,0.00
2020,03,30,02,08,0.00
2020,03,30,02,09,0.00
2020,03,30,02,10,0.00
2020,03,30,02,11,0.00
2020,03,30,02,12,0.00
2020,03,30,02,13,0.00
2020,03,30,02,14,0.00
2020,03,30,02,15,0.00
2020,03,30,02,16,0.00
2020,03,30,02,17,0.00
2020,03,30,02,18,0.00
2020,03,30,02,19,0.00
2020,03,30,02,20,0.00
2020,03,30,02,21,0.00
2020,03,30,02,22,0.00
2020,03,30,02,23,0.00
2020,03,30,02,24,0.00
2020,03,30,02,25,0.00
2020,03,30,02,26,0.00
2020,03,30,02,27,0.00
2020,03,30,02,28,0.00
2020,03,30,02,29,0.00
2020,03,30,02,30,0.00
2020,03,30,02,31,0.00
2020,03,30,02,32,0.00
2020,03,30,02,33,0.00
2020,03,30,02,34,0.00
2020,03,30,02,35,0.00
2020,03,30,02,36,0.00
2020,03,30,02,37,0.00
2020,03,30,02,38,0.00
2020,03,30,02,39,0.00
2020,03,30,02,40,0.00
2020,03,30,02,41,0.00
2020,03,30,02,42,0.00
2020,03,30,02,43,0.00
2020,03,30,02,44,0.00
2020,03,30,02,45,0.00
2020,03,30,02,46,0.00
2020,03,30,02,47,0.00
2020,03,30,02,48,0.00
2020,03,30,02,49,0.00
2020,03,30,02,50,0.00
2020,03,30,02,51,0.00
2020,03,30,02,52,0.00
2020,03,30,02,53,0.00
2020,03,30,02,54,0.00
2020,03,30,02,55,0.00
2020,03,30,02,56,0.00
2020,03,30,02,57,0.00
2020,03,30,02,58,0.00
2020,03,30,02,59,0.00
2020,03,30,03,00,0.00
2020,03,30,03,01,0.00
2020,03,30,03,02,0.00
2020,03,30,03,03,0.00
2020,03,30,03,04,0.00
2020,03,30,03,05,0.00
2020,03,30,03,06,0.00
2020,03,30,03,07,0.00
2020,03,30,03,08,0.00
2020,03,30,03,09,0.00
2020,03,30,03,10,0.00
2020,03,30,03,11,0.00
2020,03,30,03,12,0.00
2020,03,30,03,13,0.00
2020,03,30,03,14,0.00
2020,03,30,03,15,0.00
2020,03,30,03,16,0.00
2020,03,30,03,17,0.00
2020,03,30,03,18,0.00
2020,03,30,03,19,0.00
2020,03,30,03,20,0.00
2020,03,30,03,21,0.00
2020,03,30,03,22,0.00
2020,03,30,03,23,0.00
2020,03,30,03,24,0.00
2020,03,30,03,25,0.00
2020,03,30,03,26,0.00
2020,03,30,03,27,0.00
2020,03,30,03,28,0.00
2020,03,30,03,29,0.00
2020,03,30,03,30,0.00
2020,03,30,03,31,0.00
2020,03,30,03,32,0.00
2020,03,30,03,33,0.00
2020,03,30,03,34,0.00
2020,03,30,03,35,0.00
2020,03,30,03,36,0.00
2020,03,30,03,37,0.00
2020,03,30,03,38,0.00
2020,03,30,03,39,0.00
2020,03,30,03,40,0.00
2020,03,30,03,41,0.00
2020,03,30,03,42,0.00
2020,03,30,03,43,0.00
2020,03,30,03,44,0.00
2020,03,30,03,45,0.00
2020,03,30,03,46,0.00
2020,03,30,03,47,0.00
2020,03,30,03,48,0.00
2020,03,30,03,49,0.00
2020,03,30,03,50,0.00
2020,03,30,03,51,0.00
2020,03,30,03,52,0.00
2020,03,30,03,53,0.00
2020,03,30,03,54,0.00
2020,03,30,03,55,0.00
2020,03,30,03,56,0.00
2020,03,30,03,57,0.00
2020,03,30,03,58,0.00
2020,03,30,03,59,0.00
2020,03,30,04,00,0.00
2020,03,30,04,01,0.00
2020,03,30,04,02,0.00
2020,03,30,04,03,0.00
2020,03,30,04,04,0.00
2020,03,30,04,05,0.00
2020,03,30,04,06,0.00
2020,03,30,04,07,0.00
2020,03,30,04,08,0.00
2020,03,30,04,09,0.00
2020,03,30,04,10,0.00
2020,03,30,04,11,0.00
2020,03,30,04,12,0.00
2020,03,30,04,13,0.00
2020,03,30,04,14,0.00
2020,03,30,04,15,0.00
2020,03,30,04,16,0.00
2020,03,30,04,17,0.00
2020,03,30,04,18,0.00
2020,03,30,04,19,0.00
2020,03,30,04,20,0.00
2020,03,30,04,21,0.00
2020,03,30,04,22,0.00
2020,03,30,04,23,0.00
2020,03,30,04,24,0.00
2020,03,30,04,25,0.00
2020,03,30,04,26,0.00
2020,03,30,04,27,0.00
2020,03,30,04,28,0.00
2020,03,30,04,29,0.00
2020,03,30,04,30,0.00
2020,03,30,04,31,0.00
2020,03,30,04,32,0.00
2020,03,30,04,33,0.00
2020,03,30,04,34,0.00
2020,03,30,04,35,0.00
2020,03,30,04,36,0.00
2020,03,30,04,37,0.00
2020,03,30,04,38,0.00
2020,03,30,04,39,0.00
2020,03,30,04,40,0.00
2020,03,30,04,41,0.00
2020,03,30,04,42,0.00
2020,03,30,04,43,0.00
2020,03,30,04,44,0.00
2020,03,30,04,45,0.00
2020,03,30,04,46,0.00
2020,03,30,04,47,0.00
2020,03,30,04,48,0.00
2020,03,30,04,49,0.00
2020,03,30,04,50,0.00
2020,03,30,04,51,0.00
2020,03,30,04,52,0.00
2020,03,30,04,53,0.00
2020,03,30,04,54,0.00
2020,03,30,04,55,0.00
2020,03,30,04,56,0.00
2020,03,30,04,57,0.00
2020,03,30,04,58,0.00
2020,03,30,04,59,0.00
2020,03,30,05,00,0.00
2020,03,30,05,01,0.00
2020,03,30,05,02,0.00
2020,03,30,05,03,0.00
2020,03,30,05,04,0.00
2020,03,30,05,05,0.00
2020,03,30,05,06,0.00
2020,03,30,05,07,0.00
2020,03,30,05,08,0.00
2020,03,30,05,09,0.00
2020,03,30,05,10,0.00
2020,03,30,05,11,0.00
2020,03,30,05,12,0.00
2020,03,30,05,13,0.00
2020,03,30,05,14,0.00
2020,03,30,05,15,0.00
2020,03,30,05,16,0.00
2020,03,30,05,17,0.00
2020,03,30,05,18,0.00
2020,03,30,05,19,0.00
2020,03,30,05,20,0.00
2020,03,30,05,21,0.00
2020,03,30,05,22,0.00
2020,03,30,05,23,0.00
2020,03,30,05,24,0.00
2020,03,30,05,25,0.00
2020,03,30,05,26,0.00
2020,03,30,05,27,0.00
2020,03,30,05,28,0.00
2020,03,30,05,29,0.00
2020,03,30,05,30,0.00
2020,03,30,05,31,0.00
2020,03,30,05,32,0.00
2020,03,30,05,33,0.00
2020,03,30,05,34,0.00
2020,03,30,05,35,0.00
2020,03,30,05,36,0.00
2020,03,30,05,37,0.00
2020,03,30,05,38,0.00
2020,03,30,05,39,0.00
2020,03,30,05,40,0.00
2020,03,30,05,41,0.00
2020,03,30,05,42,0.00
2020,03,30,05,43,0.00
2020,03,30,05,44,0.00
2020,03,30,05,45,0.00
2020,03,30,05,46,0.00
2020,03,30,05,47,0.00
2020,03,30,05,48,0.00
2020,03,30,05,49,0.00
2020,03,30,05,50,0.00
2020,03,30,05,51,0.00
2020,03,30,05,52,0.00
2020,03,30,05,53,0.00
2020,03,30,05,54,0.00
2020,03,30,05,55,0.00
2020,03,30,05,56,0.00
2020,03,30,05,57,0.00
2020,03,30,05,58,0.00
2020,03,30,05,59,0.00
2020,03,30,06,00,0.00
2020,03,30,06,01,0.00
2020,03,30,06,02,0.00
2020,03,30,06,03,0.00
2020,03,30,06,04,0.00
2020,03,30,06,05,0.00
2020,03,30,06,06,0.00
2020,03,30,06,07,0.00
2020,03,30,06,08,0.00
2020,03,30,06,09,0.00
2020,03,30,06,10,0.00
2020,03,30,06,11,0.00
2020,03,30,06,12,0.00
2020,03,30,06,13,0.00
2020,03,30,06,14,0.00
2020,03,30,06,15,0.00
2020,03,30,06,16,0.00
2020,03,30,06,17,0.00
2020,03,30,06,18,0.00
2020,03,30,06,19,0.00
2020,03,30,06,20,0.00
2020,03,30,06,21,0.00
2020,03,30,06,22,0.00
2020,03,30,06,23,0.00
2020,03,30,06,24,0.00
2020,03,30,06,25,0.00
2020,03,30,06,26,0.00
2020,03,30,06,27,0.00
2020,03,30,06,28,0.00
2020,03,30,06,29,0.00
2020,03,30,06,30,0.00
2020,03,30,06,31,0.00
2020,03,30,06,32,0.00
2020,03,30,06,33,0.00
2020,03,30,06,34,0.00
2020,03,30,06,35,0.00
2020,03,30,06,36,0.00
2020,03,30,06,37,0.00
2020,03,30,06,38,0.00
2020,03,30,06,39,0.00
2020,03,30,06,40,0.00
2020,03,30,06,41,0.00
2020,03,30,06,42,0.00
2020,03,30,06,43,0.00
2020,03,30,06,44,0.00
2020,03,30,06,45,0.00
2020,03,30,06,46,0.00
2020,03,30,06,47,0.00
2020,03,30,06,48,0.00
2020,03,30,06,49,0.00
2020,03,30,06,50,0.00
2020,03,30,06,51,0.00
2020,03,30,06,52,0.00
2020,03,30,06,53,0.00
2020,03,30,06,54,0.00
2020,03,30,06,55,0.00
2020,03,30,06,56,0.00
2020,03,30,06,57,0.00
2020,03,30,06,58,0.00
2020,03,30,06,59,0.00
2020,03,30,07,00,0.00
2020,03,30,07,01,0.00
2020,03,30,07,02,0.00
2020,03,30,07,03,0.00
2020,03,30,07,04,0.00
2020,03,30,07,05,0.00
2020,03,30,07,06,0.00
2020,03,30,07,07,0.00
2020,03,30,07,08,2.80
2020,03,30,07,09,5.00
2020,03,30,07,10,5.00
2020,03,30,07,11,5.00
2020,03,30,07,12,5.00
2020,03,30,07,13,5.60
2020,03,30,07,14,7.00
2020,03,30,07,15,7.00
2020,03,30,07,16,7.00
2020,03,30,07,17,7.00
2020,03,30,07,18,8.90
2020,03,30,07,19,9.00
2020,03,30,07,20,9.00
2020,03,30,07,21,9.90
2020,03,30,07,22,11.00
2020,03,30,07,23,11.00
2020,03,30,07,24,11.90
2020,03,30,07,25,12.00
2020,03,30,07,26,12.40
2020,03,30,07,27,14.00
2020,03,30,07,28,14.90
2020,03,30,07,29,16.00
2020,03,30,07,30,16.00
2020,03,30,07,31,17.70
2020,03,30,07,32,19.00
2020,03,30,07,33,19.40
2020,03,30,07,34,21.00
2020,03,30,07,35,22.00
2020,03,30,07,36,24.20
2020,03,30,07,37,25.70
2020,03,30,07,38,26.00
2020,03,30,07,39,28.10
2020,03,30,07,40,30.60
2020,03,30,07,41,33.70
2020,03,30,07,42,35.90
2020,03,30,07,43,38.10
2020,03,30,07,44,39.00
2020,03,30,07,45,39.80
2020,03,30,07,46,40.10
2020,03,30,07,47,42.40
2020,03,30,07,48,44.00
2020,03,30,07,49,44.90
2020,03,30,07,50,46.60
2020,03,30,07,51,48.40
2020,03,30,07,52,50.60
2020,03,30,07,53,53.90
2020,03,30,07,54,54.00
2020,03,30,07,55,54.70
2020,03,30,07,56,55.10
2020,03,30,07,57,54.00
2020,03,30,07,58,54.00
2020,03,30,07,59,55.60
2020,03,30,08,00,56.00
2020,03,30,08,01,56.00
2020,03,30,08,02,56.00
2020,03,30,08,03,56.00
2020,03,30,08,04,56.00
2020,03,30,08,05,54.60
2020,03,30,08,06,54.00
2020,03,30,08,07,54.00
2020,03,30,08,08,54.00
2020,03,30,08,09,54.00
2020,03,30,08,10,54.00
2020,03,30,08,11,53.40
2020,03,30,08,12,53.00
2020,03,30,08,13,53.00
2020,03,30,08,14,53.00
2020,03,30,08,15,53.00
2020,03,30,08,16,53.00
2020,03,30,08,17,53.00
2020,03,30,08,18,53.00
2020,03,30,08,19,53.00
2020,03,30,08,20,53.00
2020,03,30,08,21,53.00
2020,03,30,08,22,53.00
2020,03,30,08,23,53.00
2020,03,30,08,24,53.00
2020,03,30,08,25,53.00
2020,03,30,08,26,53.70
2020,03,30,08,27,54.00
2020,03,30,08,28,54.00
2020,03,30,08,29,54.00
2020,03,30,08,30,54.00
2020,03,30,08,31,54.00
2020,03,30,08,32,54.00
2020,03,30,08,33,54.00
2020,03,30,08,34,54.00
2020,03,30,08,35,54.00
2020,03,30,08,36,54.40
2020,03,30,08,37,56.00
2020,03,30,08,38,56.00
2020,03,30,08,39,56.00
2020,03,30,08,40,57.40
2020,03,30,08,41,58.00
2020,03,30,08,42,58.10
2020,03,30,08,43,60.00
2020,03,30,08,44,60.70
2020,03,30,08,45,62.40
2020,03,30,08,46,63.00
2020,03,30,08,47,64.40
2020,03,30,08,48,66.60
2020,03,30,08,49,68.90
2020,03,30,08,50,70.40
2020,03,30,08,51,72.70
2020,03,30,08,52,74.90
2020,03,30,08,53,76.60
2020,03,30,08,54,78.40
2020,03,30,08,55,79.00
2020,03,30,08,56,80.90
2020,03,30,08,57,81.40
2020,03,30,08,58,83.00
2020,03,30,08,59,83.40
2020,03,30,09,00,84.00
2020,03,30,09,01,83.30
2020,03,30,09,02,83.00
2020,03,30,09,03,83.00
2020,03,30,09,04,83.00
2020,03,30,09,05,83.00
2020,03,30,09,06,83.00
2020,03,30,09,07,83.00
2020,03,30,09,08,83.00
2020,03,30,09,09,83.80
2020,03,30,09,10,84.00
2020,03,30,09,11,84.40
2020,03,30,09,12,86.00
2020,03,30,09,13,86.90
2020,03,30,09,14,89.10
2020,03,30,09,15,90.70
2020,03,30,09,16,94.30
2020,03,30,09,17,96.90
2020,03,30,09,18,97.00
2020,03,30,09,19,97.00
2020,03,30,09,20,97.00
2020,03,30,09,21,97.00
2020,03,30,09,22,97.70
2020,03,30,09,23,98.00
2020,03,30,09,24,100.10
2020,03,30,09,25,104.00
2020,03,30,09,26,104.30
2020,03,30,09,27,105.90
2020,03,30,09,28,107.00
2020,03,30,09,29,108.40
2020,03,30,09,30,109.00
2020,03,30,09,31,111.10
2020,03,30,09,32,113.20
2020,03,30,09,33,114.70
2020,03,30,09,34,117.80
2020,03,30,09,35,121.70
2020,03,30,09,36,124.40
2020,03,30,09,37,127.40
2020,03,30,09,38,132.10
2020,03,30,09,39,135.70
2020,03,30,09,40,139.70
2020,03,30,09,41,142.30
2020,03,30,09,42,146.20
2020,03,30,09,43,150.10
2020,03,30,09,44,152.60
2020,03,30,09,45,155.90
2020,03,30,09,46,158.40
2020,03,30,09,47,160.00
2020,03,30,09,48,160.90
2020,03,30,09,49,162.60
2020,03,30,09,50,164.40
2020,03,30,09,51,166.60
2020,03,30,09,52,169.00
2020,03,30,09,53,171.20
2020,03,30,09,54,172.00
2020,03,30,09,55,173.80
2020,03,30,09,56,177.10
2020,03,30,09,57,178.00
2020,03,30,09,58,178.00
2020,03,30,09,59,174.10
2020,03,30,10,00,171.00
2020,03,30,10,01,172.00
2020,03,30,10,02,175.80
2020,03,30,10,03,181.90
2020,03,30,10,04,189.90
2020,03,30,10,05,197.70
2020,03,30,10,06,207.40
2020,03,30,10,07,218.60
2020,03,30,10,08,237.70
2020,03,30,10,09,267.20
2020,03,30,10,10,288.90
2020,03,30,10,11,266.00
2020,03,30,10,12,317.70
2020,03,30,10,13,326.20
2020,03,30,10,14,383.30
2020,03,30,10,15,424.00
2020,03,30,10,16,424.00
2020,03,30,10,17,329.80
2020,03,30,10,18,264.30
2020,03,30,10,19,273.80
2020,03,30,10,20,293.90
2020,03,30,10,21,298.20
2020,03,30,10,22,313.70
2020,03,30,10,23,283.40
2020,03,30,10,24,312.80
2020,03,30,10,25,318.40
2020,03,30,10,26,284.10
2020,03,30,10,27,271.10
2020,03,30,10,28,269.60
2020,03,30,10,29,286.70
2020,03,30,10,30,333.30
2020,03,30,10,31,383.30
2020,03,30,10,32,353.90
2020,03,30,10,33,303.50
2020,03,30,10,34,334.30
2020,03,30,10,35,303.40
2020,03,30,10,36,279.00
2020,03,30,10,37,279.00
2020,03,30,10,38,261.80
2020,03,30,10,39,246.60
2020,03,30,10,40,237.90
2020,03,30,10,41,229.10
2020,03,30,10,42,301.00
2020,03,30,10,43,301.00
2020,03,30,10,44,287.00
2020,03,30,10,45,287.00
2020,03,30,10,46,531.40
2020,03,30,10,47,612.30
2020,03,30,10,48,566.50
2020,03,30,10,49,537.20
2020,03,30,10,50,560.70
2020,03,30,10,51,517.10
2020,03,30,10,52,476.00
2020,03,30,10,53,422.70
2020,03,30,10,54,396.00
2020,03,30,10,55,411.90
2020,03,30,10,56,609.10
2020,03,30,10,57,605.30
2020,03,30,10,58,605.60
2020,03,30,10,59,597.80
2020,03,30,11,00,604.70
2020,03,30,11,01,611.60
2020,03,30,11,02,617.20
2020,03,30,11,03,623.70
2020,03,30,11,04,634.00
2020,03,30,11,05,633.80
2020,03,30,11,06,626.00
2020,03,30,11,07,626.00
2020,03,30,11,08,355.50
2020,03,30,11,09,269.90
2020,03,30,11,10,269.00
2020,03,30,11,11,269.00
2020,03,30,11,12,337.00
2020,03,30,11,13,422.00
2020,03,30,11,14,342.50
2020,03,30,11,15,355.40
2020,03,30,11,16,361.80
2020,03,30,11,17,417.00
2020,03,30,11,18,371.00
2020,03,30,11,19,259.20
2020,03,30,11,20,234.90
2020,03,30,11,21,256.00
2020,03,30,11,22,236.00
2020,03,30,11,23,220.50
2020,03,30,11,24,215.40
2020,03,30,11,25,213.00
2020,03,30,11,26,216.60
2020,03,30,11,27,233.20
2020,03,30,11,28,260.30
2020,03,30,11,29,300.80
2020,03,30,11,30,315.00
2020,03,30,11,31,330.40
2020,03,30,11,32,338.70
2020,03,30,11,33,352.00
2020,03,30,11,34,527.60
2020,03,30,11,35,668.00
2020,03,30,11,36,524.60
2020,03,30,11,37,507.20
2020,03,30,11,38,598.60
2020,03,30,11,39,619.00
2020,03,30,11,40,619.00
2020,03,30,11,41,692.30
2020,03,30,11,42,708.80
2020,03,30,11,43,691.00
2020,03,30,11,44,475.70
2020,03,30,11,45,411.90
2020,03,30,11,46,344.30
2020,03,30,11,47,319.70
2020,03,30,11,48,305.60
2020,03,30,11,49,311.70
2020,03,30,11,50,315.00
2020,03,30,11,51,345.10
2020,03,30,11,52,350.90
2020,03,30,11,53,350.40
2020,03,30,11,54,375.00
2020,03,30,11,55,423.30
2020,03,30,11,56,468.00
2020,03,30,11,57,430.20
2020,03,30,11,58,453.70
2020,03,30,11,59,507.00
2020,03,30,12,00,689.00
2020,03,30,12,01,689.00
2020,03,30,12,02,877.30
2020,03,30,12,03,1028.00
2020,03,30,12,04,1028.00
2020,03,30,12,05,578.70
2020,03,30,12,06,601.90
2020,03,30,12,07,575.00
2020,03,30,12,08,575.00
2020,03,30,12,09,575.00
2020,03,30,12,10,575.00
2020,03,30,12,11,575.00
2020,03,30,12,12,838.90
2020,03,30,12,13,849.00
2020,03,30,12,14,854.80
2020,03,30,12,15,837.20
2020,03,30,12,16,759.10
2020,03,30,12,17,731.00
2020,03,30,12,18,731.00
2020,03,30,12,19,247.60
2020,03,30,12,20,206.70
2020,03,30,12,21,188.00
2020,03,30,12,22,188.90
2020,03,30,12,23,193.00
2020,03,30,12,24,201.30
2020,03,30,12,25,209.70
2020,03,30,12,26,217.90
2020,03,30,12,27,224.70
2020,03,30,12,28,237.10
2020,03,30,12,29,273.80
2020,03,30,12,30,306.00
2020,03,30,12,31,306.00
2020,03,30,12,32,306.00
2020,03,30,12,33,774.70
2020,03,30,12,34,721.00
2020,03,30,12,35,586.00
2020,03,30,12,36,312.40
2020,03,30,12,37,300.30
2020,03,30,12,38,280.20
2020,03,30,12,39,254.40
2020,03,30,12,40,230.40
2020,03,30,12,41,232.30
2020,03,30,12,42,266.30
2020,03,30,12,43,276.10
2020,03,30,12,44,281.10
2020,03,30,12,45,323.30
2020,03,30,12,46,272.80
2020,03,30,12,47,218.10
2020,03,30,12,48,213.70
2020,03,30,12,49,274.00
2020,03,30,12,50,218.00
2020,03,30,12,51,148.00
2020,03,30,12,52,130.40
2020,03,30,12,53,117.30
2020,03,30,12,54,108.70
2020,03,30,12,55,101.10
2020,03,30,12,56,97.00
2020,03,30,12,57,93.20
2020,03,30,12,58,91.00
2020,03,30,12,59,91.00
2020,03,30,13,00,94.30
2020,03,30,13,01,98.30
2020,03,30,13,02,106.10
2020,03,30,13,03,113.70
2020,03,30,13,04,123.10
2020,03,30,13,05,129.80
2020,03,30,13,06,133.40
2020,03,30,13,07,132.40
2020,03,30,13,08,129.90
2020,03,30,13,09,125.40
2020,03,30,13,10,117.80
2020,03,30,13,11,109.00
2020,03,30,13,12,99.90
2020,03,30,13,13,92.20
2020,03,30,13,14,85.10
2020,03,30,13,15,79.20
2020,03,30,13,16,76.80
2020,03,30,13,17,75.30
2020,03,30,13,18,74.00
2020,03,30,13,19,75.10
2020,03,30,13,20,76.00
2020,03,30,13,21,76.80
2020,03,30,13,22,79.10
2020,03,30,13,23,81.00
2020,03,30,13,24,81.00
2020,03,30,13,25,81.90
2020,03,30,13,26,83.60
2020,03,30,13,27,85.40
2020,03,30,13,28,87.60
2020,03,30,13,29,89.90
2020,03,30,13,30,90.80
2020,03,30,13,31,90.30
2020,03,30,13,32,93.70
2020,03,30,13,33,98.70
2020,03,30,13,34,102.70
2020,03,30,13,35,104.80
2020,03,30,13,36,106.70
2020,03,30,13,37,105.00
2020,03,30,13,38,104.70
2020,03,30,13,39,103.10
2020,03,30,13,40,99.20
2020,03,30,13,41,95.70
2020,03,30,13,42,91.70
2020,03,30,13,43,92.90
2020,03,30,13,44,92.50
2020,03,30,13,45,90.30
2020,03,30,13,46,89.70
2020,03,30,13,47,85.80
2020,03,30,13,48,84.00
2020,03,30,13,49,83.20
2020,03,30,13,50,81.10
2020,03,30,13,51,80.60
2020,03,30,13,52,78.40
2020,03,30,13,53,77.00
2020,03,30,13,54,77.00
2020,03,30,13,55,78.40
2020,03,30,13,56,80.60
2020,03,30,13,57,84.00
2020,03,30,13,58,86.70
2020,03,30,13,59,91.00
2020,03,30,14,00,95.20
2020,03,30,14,01,100.30
2020,03,30,14,02,102.00
2020,03,30,14,03,102.00
2020,03,30,14,04,97.90
2020,03,30,14,05,92.10
2020,03,30,14,06,86.50
2020,03,30,14,07,79.90
2020,03,30,14,08,72.70
2020,03,30,14,09,67.90
2020,03,30,14,10,63.70
2020,03,30,14,11,62.00
2020,03,30,14,12,62.00
2020,03,30,14,13,62.00
2020,03,30,14,14,61.10
2020,03,30,14,15,57.60
2020,03,30,14,16,57.40
2020,03,30,14,17,61.30
2020,03,30,14,18,67.20
2020,03,30,14,19,77.50
2020,03,30,14,20,86.70
2020,03,30,14,21,95.90
2020,03,30,14,22,102.80
2020,03,30,14,23,110.30
2020,03,30,14,24,121.10
2020,03,30,14,25,129.70
2020,03,30,14,26,137.70
2020,03,30,14,27,141.30
2020,03,30,14,28,141.60
2020,03,30,14,29,137.70
2020,03,30,14,30,131.70
2020,03,30,14,31,125.90
2020,03,30,14,32,121.30
2020,03,30,14,33,120.00
2020,03,30,14,34,120.90
2020,03,30,14,35,127.00
2020,03,30,14,36,137.90
2020,03,30,14,37,154.70
2020,03,30,14,38,177.10
2020,03,30,14,39,205.00
2020,03,30,14,40,234.80
2020,03,30,14,41,262.00
2020,03,30,14,42,282.20
2020,03,30,14,43,291.20
2020,03,30,14,44,292.00
2020,03,30,14,45,300.10
2020,03,30,14,46,336.50
2020,03,30,14,47,366.70
2020,03,30,14,48,397.70
2020,03,30,14,49,401.00
2020,03,30,14,50,401.00
2020,03,30,14,51,662.80
2020,03,30,14,52,755.90
2020,03,30,14,53,752.00
2020,03,30,14,54,676.40
2020,03,30,14,55,359.00
2020,03,30,14,56,359.00
2020,03,30,14,57,551.20
2020,03,30,14,58,649.40
2020,03,30,14,59,626.00
2020,03,30,15,00,358.40
2020,03,30,15,01,346.90
2020,03,30,15,02,344.00
2020,03,30,15,03,360.00
2020,03,30,15,04,446.90
2020,03,30,15,05,445.90
2020,03,30,15,06,421.20
2020,03,30,15,07,422.00
2020,03,30,15,08,449.00
2020,03,30,15,09,577.80
2020,03,30,15,10,564.70
2020,03,30,15,11,512.00
2020,03,30,15,12,512.00
2020,03,30,15,13,722.20
2020,03,30,15,14,724.80
2020,03,30,15,15,656.10
2020,03,30,15,16,728.70
2020,03,30,15,17,767.80
2020,03,30,15,18,784.40
2020,03,30,15,19,795.00
2020,03,30,15,20,807.80
2020,03,30,15,21,829.60
2020,03,30,15,22,867.00
2020,03,30,15,23,867.00
2020,03,30,15,24,867.00
2020,03,30,15,25,623.70
2020,03,30,15,26,388.20
2020,03,30,15,27,350.60
2020,03,30,15,28,328.70
2020,03,30,15,29,295.00
2020,03,30,15,30,249.00
2020,03,30,15,31,230.70
2020,03,30,15,32,243.40
2020,03,30,15,33,265.70
2020,03,30,15,34,319.10
2020,03,30,15,35,413.70
2020,03,30,15,36,417.00
2020,03,30,15,37,417.00
2020,03,30,15,38,357.30
2020,03,30,15,39,262.10
2020,03,30,15,40,241.10
2020,03,30,15,41,242.70
2020,03,30,15,42,265.70
2020,03,30,15,43,271.40
2020,03,30,15,44,276.70
2020,03,30,15,45,327.10
2020,03,30,15,46,371.00
2020,03,30,15,47,284.40
2020,03,30,15,48,232.50
2020,03,30,15,49,237.40
2020,03,30,15,50,250.20
2020,03,30,15,51,257.00
2020,03,30,15,52,239.00
2020,03,30,15,53,270.10
2020,03,30,15,54,304.30
2020,03,30,15,55,319.60
2020,03,30,15,56,395.90
2020,03,30,15,57,390.10
2020,03,30,15,58,348.00
2020,03,30,15,59,310.50
2020,03,30,16,00,298.40
2020,03,30,16,01,289.10
2020,03,30,16,02,279.40
2020,03,30,16,03,269.30
2020,03,30,16,04,259.10
2020,03,30,16,05,254.40
2020,03,30,16,06,254.80
2020,03,30,16,07,265.30
2020,03,30,16,08,276.50
2020,03,30,16,09,269.20
2020,03,30,16,10,250.20
2020,03,30,16,11,234.00
2020,03,30,16,12,222.70
2020,03,30,16,13,214.80
2020,03,30,16,14,208.80
2020,03,30,16,15,208.40
2020,03,30,16,16,218.80
2020,03,30,16,17,225.00
2020,03,30,16,18,234.30
2020,03,30,16,19,259.40
2020,03,30,16,20,248.20
2020,03,30,16,21,257.10
2020,03,30,16,22,268.00
2020,03,30,16,23,277.50
2020,03,30,16,24,288.00
2020,03,30,16,25,301.60
2020,03,30,16,26,331.20
2020,03,30,16,27,347.70
2020,03,30,16,28,347.70
2020,03,30,16,29,342.40
2020,03,30,16,30,338.00
2020,03,30,16,31,350.40
2020,03,30,16,32,390.00
2020,03,30,16,33,390.00
2020,03,30,16,34,357.10
2020,03,30,16,35,337.70
2020,03,30,16,36,355.00
2020,03,30,16,37,403.90
2020,03,30,16,38,316.00
2020,03,30,16,39,263.00
2020,03,30,16,40,239.80
2020,03,30,16,41,219.70
2020,03,30,16,42,205.80
2020,03,30,16,43,204.20
2020,03,30,16,44,214.10
2020,03,30,16,45,211.60
2020,03,30,16,46,188.00
2020,03,30,16,47,172.50
2020,03,30,16,48,165.90
2020,03,30,16,49,158.70
2020,03,30,16,50,153.90
2020,03,30,16,51,153.00
2020,03,30,16,52,154.60
2020,03,30,16,53,150.60
2020,03,30,16,54,149.70
2020,03,30,16,55,152.80
2020,03,30,16,56,156.70
2020,03,30,16,57,159.40
2020,03,30,16,58,160.00
2020,03,30,16,59,156.20
2020,03,30,17,00,154.60
2020,03,30,17,01,152.30
2020,03,30,17,02,149.70
2020,03,30,17,03,144.70
2020,03,30,17,04,137.10
2020,03,30,17,05,129.30
2020,03,30,17,06,119.80
2020,03,30,17,07,111.30
2020,03,30,17,08,101.90
2020,03,30,17,09,93.90
2020,03,30,17,10,86.10
2020,03,30,17,11,78.80
2020,03,30,17,12,72.90
2020,03,30,17,13,69.10
2020,03,30,17,14,64.40
2020,03,30,17,15,61.40
2020,03,30,17,16,58.20
2020,03,30,17,17,54.30
2020,03,30,17,18,51.60
2020,03,30,17,19,49.40
2020,03,30,17,20,47.10
2020,03,30,17,21,45.60